Date,TemperatureHighF,TemperatureAvgF,TemperatureLowF,DewpointHighF,DewpointAvgF,DewpointLowF,HumidityHigh,HumidityAvg,HumidityLow,PressureMaxIn,PressureMinIn,WindSpeedMaxMPH,WindSpeedAvgMPH,GustSpeedMaxMPH,PrecipitationSumIn
2013-1-1,53,51,43,52,49,41,97,93,70,30.10,29.95,11,2,18,1.41
2013-1-2,43,38,35,42,36,33,96,92,87,30.23,30.07,9,2,16,0.00
2013-1-3,44,35,28,33,29,26,92,79,52,30.41,30.21,9,1,11,0.00
2013-1-4,50,36,25,29,25,22,95,68,34,30.49,30.38,6,1,12,0.00
2013-1-5,50,38,27,40,31,24,96,79,40,30.45,30.30,2,0,4,0.10
2013-1-6,51,42,35,40,38,33,96,86,62,30.33,30.23,6,1,12,0.00
2013-1-7,58,40,28,35,31,26,96,74,33,30.41,30.29,6,1,10,0.01
2013-1-8,60,50,38,47,40,31,80,70,55,30.36,30.24,5,1,10,0.00
2013-1-9,60,55,51,59,53,47,96,92,81,30.36,30.28,5,1,6,0.14
2013-1-10,66,63,60,64,61,59,97,94,84,30.33,30.01,15,2,20,0.09
2013-1-11,66,64,62,65,63,61,98,94,83,30.13,30.06,9,2,19,0.20
2013-1-12,73,68,65,66,64,59,97,85,75,30.09,29.95,9,3,16,0.08
2013-1-13,70,63,45,65,61,44,96,91,80,30.10,29.89,12,3,15,1.20
2013-1-14,45,39,34,43,38,33,98,97,95,30.24,30.07,12,3,17,1.30
2013-1-15,45,41,37,45,41,37,98,98,98,30.15,29.96,9,2,13,0.88
2013-1-16,44,40,39,43,39,38,98,97,97,30.10,29.98,9,2,11,0.20
2013-1-17,39,36,32,39,35,31,98,95,89,30.40,29.91,14,4,21,0.47
2013-1-18,50,37,28,36,32,28,98,84,52,30.60,30.40,9,1,11,0.03
2013-1-19,59,43,28,33,30,27,97,65,33,30.44,30.24,7,1,10,0.00
2013-1-20,63,46,32,41,36,30,95,72,42,30.27,30.14,5,0,12,0.00
2013-1-21,50,41,31,37,28,19,97,65,36,30.27,30.13,11,2,15,0.00
2013-1-22,46,34,26,23,18,15,77,53,34,30.41,30.26,7,2,12,0.00
2013-1-23,55,44,30,44,31,21,76,61,40,30.42,30.23,5,1,10,0.00
2013-1-24,52,47,42,44,32,21,86,58,34,30.36,30.21,8,2,14,0.00
2013-1-25,64,52,42,55,38,20,96,63,41,30.28,30.09,10,3,16,0.11
2013-1-26,57,46,37,46,36,29,96,70,36,30.33,30.17,8,2,12,0.00
2013-1-27,59,52,45,41,36,32,73,56,39,30.37,30.29,8,1,10,0.00
2013-1-28,68,56,48,54,48,38,93,76,57,30.33,30.19,8,2,11,0.00
2013-1-29,71,64,55,64,60,52,96,88,79,30.19,29.78,13,3,16,0.00
2013-1-30,70,59,46,66,56,40,97,90,72,29.78,29.59,22,4,23,2.52
2013-1-31,51,42,30,28,26,23,89,55,33,30.23,30.11,8,2,20,0.00
2013-2-1,44,35,25,31,16,9,76,49,27,30.47,30.20,12,3,18,0.00
2013-2-2,52,36,23,40,25,14,97,68,36,30.38,30.16,7,1,10,0.11
2013-2-3,59,44,30,39,31,27,98,67,32,30.22,30.10,8,1,21,0.01
2013-2-4,53,43,32,34,30,26,87,63,39,30.14,29.99,3,1,8,0.00
2013-2-5,54,51,46,52,45,34,97,80,58,30.07,29.96,6,1,7,0.05
2013-2-6,69,54,44,51,41,35,98,67,30,30.20,30.07,5,1,8,0.00
2013-2-7,52,49,47,49,46,36,96,90,56,30.12,29.92,8,2,9,0.17
2013-2-8,53,46,33,50,43,31,97,89,68,30.27,29.94,15,2,18,0.10
2013-2-9,66,45,28,37,31,26,96,66,23,30.34,30.17,6,1,11,0.00
2013-2-10,58,53,48,57,47,35,97,80,54,30.19,29.95,10,2,17,0.81
2013-2-11,59,53,48,57,52,47,98,96,89,30.18,29.97,8,1,14,0.34
2013-2-12,48,45,42,47,43,38,98,92,68,30.17,29.79,7,1,11,0.45
2013-2-13,48,44,34,46,41,33,98,90,77,30.05,29.74,9,2,16,0.02
2013-2-14,58,43,30,40,36,30,98,78,45,30.14,30.05,6,1,10,0.01
2013-2-15,61,47,34,41,36,33,97,70,44,30.16,30.05,12,2,15,0.00
2013-2-16,43,36,27,32,20,12,70,53,30,30.26,30.08,14,3,23,0.00
2013-2-17,51,36,18,21,16,11,89,49,21,30.36,30.24,7,1,9,0.00
2013-2-18,61,50,35,37,29,16,65,46,34,30.30,29.95,15,4,19,0.00
2013-2-19,58,47,37,47,33,20,97,63,27,30.25,29.95,13,2,19,0.48
2013-2-20,43,36,25,25,21,13,89,58,30,30.30,30.16,10,2,12,0.00
2013-2-21,62,46,31,47,31,17,95,62,25,30.18,29.88,8,2,13,1.03
2013-2-22,54,50,47,51,48,46,97,94,87,30.07,29.93,5,1,11,0.42
2013-2-23,54,47,38,49,45,38,98,93,82,29.98,29.89,7,1,10,0.11
2013-2-24,63,42,31,41,35,30,98,82,37,30.09,29.98,7,2,12,0.01
2013-2-25,48,48,47,46,46,46,94,94,93,29.68,29.53,10,5,25,0.50
2013-2-26,50,47,43,49,40,33,96,78,60,29.83,29.47,12,4,19,0.32
2013-2-28,42,38,34,31,28,26,88,65,55,30.09,29.97,13,3,18,0.00
2013-3-1,42,38,34,31,28,26,81,70,56,30.11,30.05,8,2,13,0.00
2013-3-2,37,34,31,31,28,25,87,78,61,30.17,30.06,11,3,16,0.00
2013-3-3,46,35,27,26,19,13,81,56,28,30.20,30.12,15,3,17,0.00
2013-3-4,64,47,26,46,27,18,77,50,26,30.19,29.94,14,2,17,0.00
2013-3-5,64,51,34,58,45,30,91,80,71,30.06,29.75,14,4,29,0.12
2013-3-6,44,36,31,29,25,21,81,65,52,30.29,30.07,17,4,23,0.00
2013-3-7,56,40,26,32,28,24,93,68,35,30.37,30.27,7,2,13,0.00
2013-3-8,65,47,29,31,26,19,93,53,17,30.38,30.23,6,2,12,0.00
2013-3-9,69,57,42,35,30,24,52,37,27,30.26,30.07,7,2,12,0.00
2013-3-10,75,65,53,49,42,31,56,44,31,30.09,29.91,14,5,24,0.00
2013-3-11,64,51,38,53,45,35,96,82,54,29.98,29.80,11,3,25,1.07
2013-3-12,59,44,31,35,31,28,95,65,35,30.19,29.98,9,2,16,0.00
2013-3-13,55,44,34,32,24,18,85,50,25,30.39,30.18,13,3,22,0.00
2013-3-14,60,42,27,24,20,15,81,46,19,30.46,30.27,9,2,14,0.00
2013-3-15,77,60,37,45,37,24,61,44,31,30.28,29.99,10,3,16,0.00
2013-3-16,77,64,52,46,43,40,71,48,32,30.03,29.89,11,3,16,0.00
2013-3-17,70,62,54,57,52,45,90,69,49,30.00,29.86,8,3,15,0.00
2013-3-18,73,61,54,62,57,51,96,86,68,29.90,29.74,13,4,23,0.12
2013-3-19,64,52,41,51,36,28,93,59,27,30.14,29.92,11,3,16,0.00
2013-3-20,62,48,41,33,25,18,63,42,22,30.19,30.00,9,2,22,0.00
2013-3-21,50,40,30,27,18,12,76,45,21,30.11,29.97,10,2,15,0.00
2013-3-22,50,41,35,44,38,22,95,88,46,30.06,29.96,4,1,8,0.34
2013-3-23,60,52,45,54,49,43,97,89,75,29.96,29.64,7,2,22,1.92
2013-3-24,61,51,40,55,45,27,97,83,59,29.85,29.55,10,3,23,0.75
2013-3-25,45,38,32,29,23,20,75,56,40,30.19,29.85,12,4,21,0.00
2013-3-26,41,35,28,27,24,23,84,66,52,30.38,30.19,6,2,16,0.00
2013-3-27,58,41,25,29,26,22,92,58,30,30.44,30.30,9,1,13,0.00
2013-3-28,66,49,30,33,29,27,91,52,25,30.39,30.26,9,1,15,0.00
2013-3-29,73,57,38,45,34,29,79,46,24,30.32,30.15,7,1,12,0.00
2013-3-30,70,58,47,57,50,44,97,76,45,30.18,29.99,4,1,8,0.32
2013-3-31,68,60,55,58,56,54,97,87,68,29.99,29.86,10,2,12,0.19
2013-4-1,74,62,53,58,48,42,97,64,34,30.08,29.88,9,2,12,0.00
2013-4-2,66,54,44,43,38,29,87,58,35,30.20,30.07,10,2,15,0.00
2013-4-3,52,47,43,45,36,27,95,69,39,30.17,30.09,8,2,20,0.52
2013-4-4,48,46,43,46,44,42,96,94,88,30.10,29.95,8,2,13,0.52
2013-4-5,66,52,42,48,41,36,97,72,35,30.12,29.99,9,2,15,0.06
2013-4-6,78,60,38,45,38,34,95,50,22,30.17,30.04,10,2,13,0.00
2013-4-7,78,65,50,51,48,40,87,57,33,30.14,30.01,10,2,16,0.00
2013-4-8,80,69,60,60,56,51,84,65,42,30.08,29.98,10,2,14,0.00
2013-4-9,86,73,57,60,58,55,94,60,38,30.14,29.99,7,2,13,0.00
2013-4-10,90,75,63,61,57,54,79,55,31,30.04,29.84,16,2,16,0.00
2013-4-11,77,67,58,66,61,56,97,82,61,29.86,29.55,14,3,16,1.40
2013-4-12,68,54,44,55,44,40,96,74,36,30.00,29.71,7,2,16,0.00
2013-4-13,77,60,43,46,43,38,95,58,26,30.09,29.97,11,2,15,0.00
2013-4-14,59,55,50,54,49,43,94,81,57,30.04,29.81,9,1,12,0.25
2013-4-15,74,64,56,62,58,54,95,82,63,30.05,29.89,4,0,8,0.00
2013-4-16,84,73,63,68,65,60,93,78,57,30.16,30.05,5,1,8,0.01
2013-4-17,88,77,66,68,66,63,92,70,48,30.15,29.99,6,1,10,0.00
2013-4-18,82,74,66,66,62,59,83,67,46,30.01,29.71,12,3,21,0.00
2013-4-19,73,51,43,66,46,36,95,83,60,30.16,29.70,9,2,22,1.27
2013-4-20,64,49,32,42,35,31,97,66,30,30.29,30.16,11,1,14,0.00
2013-4-21,74,56,40,43,39,36,87,56,27,30.32,30.19,6,1,12,0.00
2013-4-22,78,61,50,53,47,41,83,62,36,30.25,30.09,9,1,12,0.00
2013-4-23,80,65,52,55,50,43,85,61,39,30.16,30.02,5,1,13,0.00
2013-4-24,65,59,48,63,55,45,96,86,71,30.23,30.00,8,2,13,0.27
2013-4-25,68,52,39,45,39,32,97,67,28,30.37,30.22,10,2,14,0.00
2013-4-26,83,60,39,49,40,28,91,54,14,30.37,30.20,6,1,9,0.00
2013-4-27,83,68,58,64,54,47,96,65,39,30.25,30.00,8,1,12,0.14
2013-4-28,70,64,58,66,61,58,98,93,84,30.04,29.93,10,1,25,1.85
2013-4-29,80,65,55,60,56,51,98,77,40,30.04,29.92,4,0,9,0.00
2013-4-30,85,68,51,60,55,50,97,70,34,30.01,29.93,5,0,6,0.00
2013-5-1,75,68,64,62,59,55,86,75,60,30.10,29.98,12,2,13,0.00
2013-5-2,68,64,61,61,58,54,86,79,71,30.11,30.03,6,2,17,0.00
2013-5-3,75,64,46,60,57,45,95,80,55,30.03,29.84,6,1,16,0.74
2013-5-4,60,47,41,46,43,39,97,87,60,29.99,29.89,6,1,14,1.59
2013-5-5,59,48,40,52,46,39,97,92,70,29.92,29.83,5,1,9,0.47
2013-5-6,61,50,46,55,48,45,98,94,78,29.93,29.83,5,1,12,0.58
2013-5-7,72,58,49,55,51,48,98,81,48,30.03,29.91,4,1,9,0.04
2013-5-8,82,65,48,61,56,48,98,76,42,30.09,30.00,4,0,8,0.00
2013-5-9,86,70,54,63,58,53,97,69,38,30.12,30.01,4,0,6,0.00
2013-5-10,75,67,61,61,59,58,94,77,58,30.07,29.93,7,1,13,0.02
2013-5-11,80,66,57,66,62,56,96,87,60,30.01,29.90,4,0,12,0.43
2013-5-12,70,58,47,55,45,37,98,66,30,30.16,30.01,9,1,15,0.01
2013-5-13,75,58,38,47,42,34,97,60,29,30.30,30.14,5,1,11,0.00
2013-5-14,85,68,48,57,52,45,93,60,35,30.24,30.10,5,1,8,0.00
2013-5-15,89,73,59,59,56,53,82,58,33,30.18,30.01,4,1,7,0.00
2013-5-16,86,73,64,61,58,50,82,62,30,30.06,29.95,3,0,7,0.00
2013-5-17,80,70,66,69,65,60,97,85,63,30.04,29.93,4,1,9,1.67
2013-5-18,84,74,68,72,70,67,98,88,66,30.04,29.95,4,0,10,2.15
2013-5-19,82,74,68,73,70,63,97,85,69,30.05,29.96,4,1,14,0.00
2013-5-20,90,74,63,71,67,62,97,80,50,30.07,29.95,4,0,5,0.00
2013-5-21,92,79,65,71,67,64,97,70,40,30.00,29.82,4,1,7,0.00
2013-5-22,85,75,66,70,66,64,94,75,55,29.92,29.84,5,1,8,0.00
2013-5-23,87,75,64,69,62,56,97,70,39,30.03,29.91,5,1,14,0.00
2013-5-24,77,66,54,60,54,49,85,66,38,30.23,30.03,7,2,15,0.00
2013-5-25,85,66,47,56,50,45,94,62,27,30.30,30.17,5,1,7,0.00
2013-5-26,90,71,52,62,56,50,95,63,29,30.24,30.12,3,0,8,0.00
2013-5-27,88,73,58,66,60,56,92,67,40,30.18,30.05,4,1,9,0.00
2013-5-28,88,76,61,66,62,57,87,63,43,30.13,30.02,3,1,10,0.00
2013-5-29,90,78,64,70,65,58,84,65,49,30.13,30.02,3,0,9,0.00
2013-5-30,87,78,69,71,67,63,83,70,54,30.13,30.01,6,1,8,0.00
2013-5-31,88,78,73,70,67,66,81,70,51,30.10,29.98,4,1,10,0.00
2013-6-1,87,76,69,75,70,65,96,81,62,30.02,29.92,5,1,9,0.19
2013-6-2,85,76,69,71,68,65,96,80,54,29.96,29.86,4,1,6,0.01
2013-6-3,86,74,67,71,66,64,96,79,51,29.95,29.86,6,1,9,0.00
2013-6-4,90,76,62,69,65,60,94,72,47,30.00,29.91,5,1,8,0.00
2013-6-5,92,73,65,75,69,65,98,87,56,29.95,29.79,6,1,28,2.13
2013-6-6,86,74,65,75,70,64,98,87,68,29.88,29.72,3,0,7,0.01
2013-6-7,78,70,64,71,68,64,98,94,79,29.88,29.70,4,0,12,0.51
2013-6-8,89,74,64,71,67,63,98,79,47,30.02,29.87,2,0,6,0.00
2013-6-9,87,74,69,74,70,68,96,86,57,30.03,29.89,3,1,9,0.41
2013-6-10,90,78,68,74,69,67,98,78,50,29.99,29.91,3,1,10,0.73
2013-6-11,96,82,71,76,73,70,97,76,49,30.05,29.96,4,1,7,0.00
2013-6-12,106,86,70,79,73,69,98,70,39,30.06,29.96,1,0,5,0.00
2013-6-13,99,84,71,77,74,68,96,74,46,29.96,29.77,7,1,12,0.02
2013-6-14,86,75,65,68,64,60,96,71,42,29.99,29.86,9,1,12,0.00
2013-6-15,92,76,60,71,66,58,97,73,44,30.07,29.98,3,0,7,0.00
2013-6-16,94,79,68,75,69,62,90,72,50,30.08,29.96,4,0,7,0.00
2013-6-17,91,76,70,76,71,69,97,85,57,29.98,29.91,5,0,16,0.24
2013-6-18,85,74,68,75,71,67,97,90,70,29.93,29.85,4,1,10,0.56
2013-6-19,88,76,67,71,68,66,98,80,51,30.04,29.92,7,1,9,0.01
2013-6-20,90,78,66,71,68,65,97,75,50,30.14,30.03,6,0,7,0.00
2013-6-21,90,77,66,72,68,65,96,75,48,30.19,30.09,6,0,8,0.00
2013-6-22,90,77,65,69,66,62,96,71,41,30.18,30.04,5,0,9,0.00
2013-6-23,92,78,64,73,69,63,97,76,49,30.15,30.04,5,0,10,0.00
2013-6-24,87,78,70,75,72,69,97,84,66,30.17,30.06,5,0,7,0.00
2013-6-25,94,79,70,75,72,69,97,80,50,30.12,29.99,3,0,6,0.00
2013-6-26,94,82,72,76,73,70,96,75,51,30.05,29.90,2,1,6,0.00
2013-6-27,95,82,68,80,75,66,97,79,59,29.99,29.81,8,1,21,0.32
2013-6-28,91,81,73,79,74,71,97,81,52,29.84,29.68,4,1,13,0.22
2013-6-29,91,79,70,75,68,62,98,73,39,29.73,29.65,4,0,9,0.01
2013-6-30,92,76,63,68,64,59,96,69,35,29.77,29.69,4,0,11,0.00
2013-7-1,90,75,61,70,65,61,97,73,44,29.89,29.75,4,0,5,0.00
2013-7-2,89,76,63,69,66,62,97,74,45,30.02,29.88,4,0,6,0.00
2013-7-3,80,72,67,74,69,65,97,90,66,30.07,30.00,6,0,8,0.87
2013-7-4,78,72,69,73,70,69,97,92,76,30.05,29.98,4,1,10,0.76
2013-7-5,77,72,69,73,70,68,98,93,85,30.11,30.02,3,1,8,0.02
2013-7-6,75,71,68,73,70,68,98,97,93,30.10,30.04,1,0,4,0.61
2013-7-7,89,77,70,76,72,69,98,86,60,30.13,30.06,2,0,6,0.00
2013-7-8,89,76,70,78,73,69,98,90,63,30.16,30.07,2,0,5,0.37
2013-7-9,93,80,70,77,73,69,98,82,51,30.16,30.04,5,0,6,0.00
2013-7-10,94,80,70,78,73,69,98,81,56,30.07,29.92,3,0,14,0.00
2013-7-11,89,77,68,77,72,68,98,86,62,30.01,29.85,3,0,11,0.69
2013-7-12,89,76,70,75,71,66,97,85,59,29.93,29.86,7,1,11,0.00
2013-7-13,88,75,64,75,69,63,95,81,55,30.02,29.91,5,1,9,0.00
2013-7-14,88,76,69,76,71,68,95,85,63,30.10,29.98,3,0,11,0.02
2013-7-15,92,78,72,74,72,71,96,82,52,30.21,30.09,6,1,13,0.03
2013-7-16,91,80,70,74,72,69,96,79,52,30.27,30.19,10,1,12,0.00
2013-7-17,88,76,70,76,72,69,98,89,61,30.27,30.12,5,1,6,0.00
2013-7-18,94,80,70,74,71,68,95,75,47,30.17,30.02,6,1,9,0.00
2013-7-19,95,81,69,75,72,68,98,76,46,30.09,29.94,2,0,4,0.00
2013-7-20,91,78,70,76,72,69,97,85,60,30.01,29.90,2,0,6,0.10
2013-7-21,90,75,69,80,72,68,98,91,65,30.03,29.90,11,0,17,2.83
2013-7-22,83,74,68,77,71,68,98,91,76,29.99,29.88,3,1,10,0.33
2013-7-23,79,71,68,76,70,67,98,96,84,29.98,29.86,5,0,15,1.93
2013-7-24,86,75,68,77,72,68,98,90,70,29.91,29.82,4,0,8,0.01
2013-7-25,89,76,68,73,68,64,98,78,47,30.00,29.86,7,1,10,0.00
2013-7-26,91,76,64,73,68,63,98,78,46,30.03,29.95,5,0,6,0.00
2013-7-27,87,76,67,72,69,66,98,82,56,29.97,29.88,2,0,5,0.00
2013-7-28,88,78,70,74,71,69,96,81,57,30.03,29.91,5,1,7,0.00
2013-7-29,88,75,66,69,66,63,96,77,48,30.15,30.02,5,1,8,0.00
2013-7-30,95,79,62,77,69,61,96,74,44,30.18,30.05,3,0,5,0.01
2013-7-31,92,79,71,78,74,70,96,84,59,30.08,29.93,8,1,13,0.07
2013-8-1,89,76,69,75,71,68,98,85,57,29.99,29.92,7,1,9,0.84
2013-8-2,92,78,66,73,69,65,98,78,43,30.02,29.94,4,1,6,0.01
2013-8-3,90,76,66,78,72,65,98,88,64,30.05,29.98,3,0,6,0.46
2013-8-4,90,78,71,76,73,70,98,85,60,30.05,29.98,9,1,10,1.02
2013-8-5,88,77,69,74,70,68,97,82,57,30.05,29.96,9,0,9,0.00
2013-8-6,90,77,70,78,73,68,97,88,63,29.99,29.92,3,0,7,0.33
2013-8-7,97,79,71,80,74,70,98,84,54,30.00,29.91,3,0,12,0.00
2013-8-8,92,78,70,80,73,68,97,85,58,30.00,29.92,3,0,6,0.00
2013-8-9,95,79,71,78,74,70,97,85,51,30.06,29.97,5,0,8,0.05
2013-8-10,92,79,71,78,74,71,98,87,61,30.11,30.03,7,0,9,0.01
2013-8-11,94,81,71,77,74,70,98,80,53,30.14,30.04,3,0,5,0.00
2013-8-12,93,81,71,78,74,70,98,81,56,30.09,29.96,5,0,10,0.00
2013-8-13,90,77,70,78,73,70,97,87,60,30.00,29.88,5,0,7,0.26
2013-8-14,82,73,66,72,70,64,98,90,65,29.99,29.90,6,1,11,0.15
2013-8-15,81,68,62,72,63,-100,96,87,74,30.04,29.96,5,-13,7,0.00
2013-8-16,66,63,65,64,58,-100,94,89,90,30.02,29.99,2,-37,5,0.00
2013-8-19,73,62,71,72,47,-100,97,83,95,30.05,30.04,0,-143,2,0.02
2013-8-20,86,75,70,77,72,69,98,91,74,30.12,30.03,7,1,15,0.75
2013-8-21,91,78,70,76,72,70,98,83,52,30.17,30.06,3,0,5,0.00
2013-8-22,94,79,70,77,73,70,98,83,50,30.13,30.01,6,1,9,0.00
2013-8-23,94,78,69,78,72,68,98,82,54,30.07,29.96,5,0,8,0.00
2013-8-24,90,79,70,77,72,69,98,83,59,30.17,30.02,6,0,8,0.00
2013-8-25,76,71,67,71,68,66,95,90,76,30.28,30.17,6,0,8,0.00
2013-8-27,-200,0,200,-100,-100,-100,0,0,100,30.28,0.00,0,-999,0,0.00
2013-8-28,-200,0,200,-100,-100,-100,0,0,100,30.31,30.22,0,-999,0,0.00
2013-8-29,-200,0,200,-100,-100,-100,0,0,100,30.29,30.18,0,-999,0,0.00
2013-8-30,-200,0,200,-100,-100,-100,0,0,100,30.23,30.11,0,-999,0,0.00
2013-8-31,-200,0,200,-100,-100,-100,0,0,100,30.17,30.06,0,-999,0,0.00
2013-9-1,-200,0,200,-100,-100,-100,0,0,100,30.15,30.06,0,-999,0,0.00
2013-9-2,-200,0,200,-100,-100,-100,0,0,100,30.23,30.09,0,-999,0,0.00
2013-9-3,-200,0,200,-100,-100,-100,0,0,100,30.21,30.11,0,-999,0,0.00
2013-9-4,-200,0,200,-100,-100,-100,0,0,100,30.32,30.20,0,-999,0,0.00
2013-9-5,-200,0,200,-100,-100,-100,0,0,100,30.37,30.29,0,-999,0,0.00
2013-9-6,-200,0,200,-100,-100,-100,0,0,100,30.36,30.25,0,-999,0,0.00
2013-9-7,-200,0,200,-100,-100,-100,0,0,100,30.32,30.21,0,-999,0,0.00
2013-9-8,-200,0,200,-100,-100,-100,0,0,100,30.25,30.16,0,-999,0,0.00
2013-9-9,85,23,74,77,-49,-100,96,26,74,30.29,30.20,0,-708,1,0.00
2013-9-10,82,72,70,74,71,69,97,95,77,30.36,30.26,2,0,2,0.00